Hourly Data Report for October 18, 2016

All times are specified in Local Standard Time (LST). Add 1 hour to adjust for Daylight Saving Time where and when it is observed.

QIKIQTARJUAQ A
NUNAVUT

67°32'48.000" N
64°01'54.000" W
5.50 m
2400577
YVM

Download Data

Hourly Data (October 2016)
Hourly Data Report for October 18, 2016
Temp Definition
°C
Dew Point Temp Definition
°C
Rel Hum Definition
%
Wind Dir Definition
10's deg

Wind Spd Definition
km/h
Visibility Definition
km
Stn Press Definition
kPa
Hmdx Definition


Wind Chill Definition


Weather Definition


TIME
00:00 Legend Double Dagger -6.1 -11.5 66 13 4 16.1 101.66   -8 LegendNANA
01:00 Legend Double Dagger -6.9 -10.7 75 13 8 16.1 101.69   -11 LegendNANA
02:00 Legend Double Dagger -7.0 -10.5 76 14 8 16.1 101.72   -11 LegendNANA
03:00 Legend Double Dagger -6.8 -10.5 75 14 11 16.1 101.73   -12 LegendNANA
04:00 Legend Double Dagger -6.5 -10.0 77 14 8 16.1 101.74   -10 LegendNANA
05:00 Legend Double Dagger -7.0 -10.3 77 18 5 16.1 101.74   -10 LegendNANA
06:00 Legend Double Dagger -6.3 -9.9 76   0 16.1 101.78     LegendNANA
07:00 Legend Double Dagger -8.0 -13.1 67 LegendMM 5 16.1 101.79   -11 LegendNANA
08:00 Legend Double Dagger -8.5 -14.4 63 13 9 16.1 101.81   -13 LegendNANA
09:00 Legend Double Dagger -8.0 -14.6 60 15 13 16.1 101.83   -14 LegendNANA
10:00 Legend Double Dagger -6.6 -14.6 53 9 5 16.1 101.83   -9 LegendNANA
11:00 Legend Double Dagger -4.9 -14.3 48 32 9 16.1 101.79   -9 LegendNANA
12:00 Legend Double Dagger -5.6 -12.9 57 25 11 16.1 101.76   -10 LegendNANA
13:00 Legend Double Dagger -8.8 -13.7 68 14 5 16.1 101.75   -12 LegendNANA
14:00 Legend Double Dagger -8.0 -15.5 55 16 5 16.1 101.74   -11 LegendNANA
15:00 Legend Double Dagger -9.6 -15.8 61 15 9 16.1 101.73   -14 LegendNANA
16:00 Legend Double Dagger -9.0 -15.6 59 14 8 16.1 101.74   -13 LegendNANA
17:00 Legend Double Dagger -9.9 -15.4 64 16 8 16.1 101.74   -14 LegendNANA
18:00 Legend Double Dagger -8.9 -14.7 63 18 17 16.1 101.70   -16 LegendNANA
19:00 Legend Double Dagger -10.8 -15.9 66 14 8 16.1 101.66   -15 LegendNANA
20:00 Legend Double Dagger -11.1 -15.7 69 14 8 16.1 101.60   -16 LegendNANA
21:00 Legend Double Dagger -10.7 -16.0 66 14 9 16.1 101.58   -16 LegendNANA
22:00 Legend Double Dagger -11.0 -15.1 72 14 8 16.1 101.56   -16 LegendNANA
23:00 Legend Double Dagger -10.9 -14.7 74 13 5 16.1 101.53   -14 LegendNANA

Notes on Data Quality.

Legend

  • E = Estimated
  • M = Missing
  • NA = Not Available
  • ‡ = Partner data that is not subject to review by the National Climate Archives
Date modified: